Wenatchee, WA

9:38 AM PDT on September 26, 2017 (GMT -0700)
Pangborn Memorial

Weather History for KEAT - November, 2011

Change the Weather History Date:

Wednesday, November 9, 2011

  Actual Average Record
Temperature  
Mean Temperature 40 °F 37 °F  
Max Temperature 47 °F 44 °F 70 °F (1989)
Min Temperature 32 °F 29 °F 17 °F (1986)
Degree Days  
Heating Degree Days 25 28  
Month to date heating degree days 251 242  
Since 1 July heating degree days 716 1198  
Cooling Degree Days 0 0  
Month to date cooling degree days 0 0  
Year to date cooling degree days 631 249  
Moisture  
Dew Point 31 °F    
Average Humidity 71    
Maximum Humidity 82    
Minimum Humidity 60    
Precipitation  
Precipitation 0.00 in 0.07 in 0.29 in (2014)
Month to date precipitation 0.00 0.56  
Year to date precipitation 5.95 12.90  
Snow  
Snow 0.00 in 0.10 in - ()
Month to date snowfall 0.7  
Since 1 July snowfall 0.8  
Since 1 September snowfall 0.8  
Snow Depth -    
Sea Level Pressure  
Sea Level Pressure 30.38 in    
Wind  
Wind Speed 2 mph (WNW)    
Max Wind Speed 8 mph    
Max Gust Speed 10 mph    
Visibility 10 miles    
Events      
T = Trace of Precipitation, MM = Missing Value Source: NWS Daily Summary

Daily Weather History Graph

Daily Weather History Graph

Search for Another Location

Airport or City:

Trip Planner

Search our weather history database for the weather conditions in past years. The results will help you decide how hot, cold, wet, or windy it might be!

Date:

Astronomy

Nov. 09, 2011 Rise Set
Actual Time 6:56 AM PST 4:32 PM PST
Civil Twilight 6:23 AM PST 5:05 PM PST
Nautical Twilight 5:46 AM PST 5:42 PM PST
Astronomical Twilight 5:10 AM PST 6:17 PM PST
Moon 3:46 PM PST (11/9) 5:56 AM PST (11/9)
Length of Visible Light 10h 41m
Length of Day
9h 36m
Waxing Gibbous, 99% of the Moon is Illuminated
Nov 9
Waxing Gibbous
Nov 10
Full
Nov 18
Last Quarter
Nov 24
New
Dec 2
First Quarter

Hourly Weather History & Observations

Time (PST) Temp. Windchill Dew Point Humidity Pressure Visibility Wind Dir Wind Speed Gust Speed Precip Events Conditions
12:55 AM 37.0 °F - 30.9 °F 79% 30.40 in 10.0 mi Calm Calm - N/A   Overcast
1:55 AM 37.0 °F - 30.9 °F 79% 30.40 in 10.0 mi Calm Calm - N/A   Overcast
3:55 AM 37.0 °F - 30.9 °F 79% 30.40 in 10.0 mi Calm Calm - N/A   Mostly Cloudy
4:55 AM 35.1 °F - 30.0 °F 82% 30.42 in 10.0 mi Calm Calm - N/A   Overcast
5:55 AM 36.0 °F - 30.9 °F 82% 30.43 in 10.0 mi Calm Calm - N/A   Overcast
6:55 AM 37.0 °F - 32.0 °F 82% 30.44 in 10.0 mi Calm Calm - N/A   Overcast
7:55 AM 37.9 °F - 32.0 °F 79% 30.44 in 10.0 mi Calm Calm - N/A   Overcast
8:55 AM 39.0 °F - 32.0 °F 76% 30.45 in 10.0 mi Calm Calm - N/A   Scattered Clouds
9:55 AM 39.9 °F 37.8 °F 33.1 °F 77% 30.45 in 10.0 mi West 3.5 mph - N/A   Overcast
10:55 AM 42.1 °F - 33.1 °F 70% 30.45 in 10.0 mi Calm Calm - N/A   Overcast
11:55 AM 44.1 °F - 33.1 °F 65% 30.43 in 10.0 mi Calm Calm - N/A   Overcast
12:55 PM 45.0 °F - 33.1 °F 63% 30.40 in 10.0 mi Calm Calm - N/A   Overcast
1:55 PM 45.0 °F - 33.1 °F 63% 30.38 in 10.0 mi Calm Calm - N/A   Mostly Cloudy
2:55 PM 46.0 °F - 33.1 °F 61% 30.36 in 10.0 mi Calm Calm - N/A   Clear
3:55 PM 46.0 °F - 33.1 °F 61% 30.35 in 10.0 mi Calm Calm - N/A   Clear
4:55 PM 39.9 °F 37.8 °F 30.9 °F 70% 30.35 in 10.0 mi NW 3.5 mph - N/A   Clear
5:55 PM 37.9 °F 35.5 °F 30.0 °F 73% 30.34 in 10.0 mi NNW 3.5 mph - N/A   Clear
6:55 PM 37.9 °F 33.5 °F 30.0 °F 73% 30.33 in 10.0 mi NW 5.8 mph - N/A   Clear
7:55 PM 37.9 °F 32.7 °F 30.9 °F 76% 30.32 in 10.0 mi WNW 6.9 mph - N/A   Clear
8:55 PM 35.1 °F 29.3 °F 30.0 °F 82% 30.32 in 10.0 mi West 6.9 mph - N/A   Clear
9:55 PM 34.0 °F 29.8 °F 28.9 °F 82% 30.32 in 10.0 mi NW 4.6 mph - N/A   Clear
10:55 PM 35.1 °F 32.2 °F 30.0 °F 82% 30.30 in 10.0 mi WNW 3.5 mph - N/A   Clear
11:55 PM 34.0 °F - 30.9 °F 89% 30.30 in 10.0 mi Calm Calm - N/A   Clear